[[{"header":{"parameterUnit":"m.s-1","parameterCategory":1,"la1":30.2991,"la2":30.254,"lo1":-89.0895,"lo2":-89.0444,"dy":0.0017,"dx":0.0017,"nx":28,"ny":28,"refTime":"2024-06-26T03:00:00:Z","depth":0,"parameterNumber":2,"parameterNumberName":"U-component_of_WINDS"},"data":[0,0,0,0,0,0,0,0,0,0,0,0,0,0,0,0,0,0,0,0,0,0,0,0,0,0,0,0,0,0,0,0,0,0,0,0,0,0,0,0,0,0,0,0,0,0,0,0,0,0,0,0,0,0,0,0,0,0,3.8151,3.8152,0,3.8213,3.8214,3.8214,3.8181,3.818,3.8178,3.8176,3.8242,3.8245,3.8248,0,0,0,0,0,0,0,0,0,0,0,0,0,3.801,3.8013,3.8151,3.8152,3.8153,3.8213,3.8214,3.8214,3.8182,3.818,3.8178,3.8176,3.8241,3.8245,3.8249,0,0,0,0,0,0,0,0,0,0,0,0,0,3.8072,3.8014,3.8151,3.8144,3.8144,3.8213,3.8214,3.8215,3.8182,3.818,3.8177,3.8175,3.8239,3.8244,3.8249,3.833,0,0,3.8264,3.8266,0,0,0,0,0,0,0,0,3.8068,3.8077,3.8144,3.8144,3.8144,3.8187,3.8188,3.8253,3.8183,3.8168,3.8176,3.8174,3.8226,3.8232,3.8249,3.8333,3.8335,3.8265,3.8268,3.827,3.8271,0,0,0,0,0,0,0,3.8064,3.8074,3.8176,3.8145,3.8145,3.8139,3.8145,3.82,3.821,3.8169,3.8166,3.8174,3.8225,3.8244,3.825,3.8336,3.8264,3.8269,3.8272,3.8274,3.8494,3.8497,0,0,0,0,0,0,3.806,3.8071,3.8174,3.8178,3.8099,3.8143,3.815,3.8176,3.8209,3.8212,3.8176,3.8172,3.8237,3.8244,3.8252,3.8351,3.827,3.8274,3.8277,3.8491,3.8494,3.8498,0,0,0,0,0,0,3.8057,3.8069,3.8171,3.8124,3.8136,3.8148,3.8178,3.8178,3.8197,3.8215,3.8217,3.8193,3.8235,3.8245,3.8311,3.8353,3.8277,3.8281,3.8488,3.8492,3.8496,3.8548,0,0,0,0,0,0,3.8053,3.8068,3.8098,3.8124,3.8139,3.8228,3.818,3.8181,3.8205,3.8201,3.8231,3.8234,3.8234,3.8304,3.8316,3.8358,3.8285,3.8484,3.849,3.8495,3.8543,3.8554,3.8563,0,0,0,0,0,3.8048,3.8109,3.8099,3.8112,3.8176,3.823,3.8239,3.8237,3.8209,3.8239,3.8252,3.8233,3.8346,3.8311,3.8325,3.8369,3.8481,3.8488,3.8494,3.8538,3.8551,3.8563,0,0,0,0,0,0,3.8087,3.8113,3.8102,3.8173,3.82,3.8225,3.8263,3.825,3.8286,3.828,3.8277,3.8285,3.8354,3.8368,3.8328,3.845,3.841,3.8419,3.8439,3.8451,3.8461,3.8457,3.8289,0,0,0,0,0,3.8104,3.8145,3.8166,3.8228,3.8242,3.825,3.8274,3.8271,3.8298,3.8309,3.8326,3.8355,3.8397,3.8425,3.8465,3.8545,3.8553,3.8582,3.8592,3.86,3.8609,3.8656,3.867,3.8519,3.8519,3.8519,0,0,3.8139,3.8159,3.8185,3.8236,3.8256,3.8301,3.826,3.8308,3.8342,3.8317,3.8381,3.8395,3.8427,3.8501,3.8534,3.8515,3.8653,3.8609,3.8615,3.8619,3.8664,3.8678,3.8691,3.8523,3.8522,3.8522,0,0,3.8227,3.8245,3.8299,3.8321,3.8353,3.8359,3.8372,3.8399,3.8408,3.8472,3.8455,3.8496,3.8568,3.8593,3.8614,3.8716,3.8701,3.8729,3.8782,3.8827,3.8839,3.885,3.8888,3.8902,3.8737,3.8737,3.8737,0,3.8267,3.8333,3.8329,3.838,3.8404,3.8384,3.8441,3.8463,3.8506,3.8524,3.8501,3.8593,3.8613,3.8695,3.872,3.8737,3.8754,3.8725,3.8838,3.8848,3.8858,3.8895,3.8909,3.874,3.874,3.874,3.8739,0,3.8382,3.8428,3.8469,3.8511,3.854,3.8594,3.86,3.863,3.8626,3.8635,3.8702,3.8726,3.8772,3.8791,3.8785,3.8873,3.886,3.8837,3.8797,3.8876,3.891,3.8924,3.8745,3.8744,3.8743,3.8742,0,0,3.8494,3.8536,3.8552,3.8572,3.8607,3.8643,3.8697,3.8742,3.8769,3.88,3.8847,3.891,3.8891,3.8916,3.8914,3.8954,3.9036,3.8928,3.8928,3.8949,3.9137,3.9154,3.917,3.9027,3.903,3.9032,3.9135,0,3.8586,3.8679,3.8679,3.8766,3.8811,3.8794,3.8842,3.8869,3.888,3.8921,3.8933,3.8979,3.8949,3.8964,3.9003,3.9018,3.9074,3.9011,3.9073,3.9075,3.9066,3.9188,3.9205,3.9301,3.9148,3.915,3.9152,0,3.8704,3.874,3.8832,3.8863,3.8882,3.8924,3.8967,3.9005,3.9038,3.9043,3.9073,3.9066,3.9124,3.9081,3.9162,3.9119,3.9145,3.9156,3.916,3.9166,3.9118,3.9199,3.9332,3.9347,3.9173,3.9171,3.917,0,3.8779,3.8851,3.8916,3.8933,3.8971,3.9002,3.9019,3.9049,3.9077,3.9115,3.9134,3.9178,3.9203,3.9238,3.9245,3.9213,3.9327,3.9284,3.9335,3.9335,3.936,3.9358,3.95,3.9375,3.9374,3.9374,3.9374,0,3.8882,3.8939,3.895,3.899,3.9055,3.9056,3.912,3.9136,3.9163,3.9207,3.9196,3.9238,3.9243,3.9288,3.9293,3.9361,3.9372,3.9379,3.938,3.9381,3.938,3.9398,3.9392,3.9378,3.9377,3.9376,3.9376,0,3.8977,3.8986,3.9056,3.9087,3.9096,3.9143,3.917,3.921,3.922,3.9277,3.929,3.9308,3.9359,3.9369,3.943,3.9434,3.9516,3.9509,3.9505,3.9504,3.9555,3.9551,3.9714,3.9737,3.9595,3.9597,3.9598,0,3.9042,3.9086,3.9122,3.9151,3.917,3.9216,3.9245,3.9249,3.928,3.9322,3.9357,3.9408,3.9449,3.9533,3.9552,3.96,3.9595,3.9649,3.9602,3.9603,3.9599,3.9596,3.9602,3.9659,3.966,3.9661,3.9662,0,3.9158,3.9161,3.9202,3.9247,3.9282,3.9318,3.9351,3.9376,3.9384,3.942,3.9473,3.9505,3.9569,3.962,3.9668,3.9688,3.9678,3.9677,3.9692,3.9693,3.9689,3.9694,3.9531,3.9673,3.9672,3.9671,3.9671,3.967,3.9241,3.928,3.9313,3.9361,3.9387,3.9419,3.9459,3.9475,3.9519,3.9571,3.9571,3.963,3.9664,3.9728,3.9751,3.9799,3.9782,3.9802,3.9808,3.9813,3.9819,3.9681,3.9807,3.9807,3.9807,3.9806,3.9806,0,3.9358,3.9378,3.9422,3.947,3.9509,3.9496,3.9533,3.9567,3.9618,3.9651,3.9692,3.9755,3.9806,3.983,3.9881,3.9914,3.9911,3.9928,3.9926,3.9931,3.983,3.9813,3.9929,3.9929,3.9929,3.9929,3.9929,3.9929,3.9423,3.949,3.9498,3.9579,3.9599,3.9656,3.9679,3.971,3.9737,3.9807,3.9849,3.9865,3.9895,3.9949,3.9996,4.0002,4.0022,4.0041,4.0045,3.995,3.9938,3.9926,3.991,4.0045,4.0045,4.0142,4.0143,4.0144]},{"header":{"parameterUnit":"m.s-1","parameterCategory":1,"la1":30.2991,"la2":30.254,"lo1":-89.0895,"lo2":-89.0444,"dy":0.0017,"dx":0.0017,"nx":28,"ny":28,"refTime":"2024-06-26T03:00:00:Z","depth":0,"parameterNumber":3,"parameterNumberName":"V-component_of_WINDS"},"data":[0,0,0,0,0,0,0,0,0,0,0,0,0,0,0,0,0,0,0,0,0,0,0,0,0,0,0,0,0,0,0,0,0,0,0,0,0,0,0,0,0,0,0,0,0,0,0,0,0,0,0,0,0,0,0,0,0,0,-1.333,-1.333,0,-1.3315,-1.3315,-1.3315,-1.3303,-1.3303,-1.3303,-1.3303,-1.3286,-1.3285,-1.3285,0,0,0,0,0,0,0,0,0,0,0,0,0,-1.3347,-1.3347,-1.333,-1.333,-1.333,-1.3315,-1.3315,-1.3315,-1.3303,-1.3303,-1.3303,-1.3303,-1.3286,-1.3285,-1.3285,0,0,0,0,0,0,0,0,0,0,0,0,0,-1.3337,-1.3347,-1.333,-1.3322,-1.3321,-1.3315,-1.3315,-1.3315,-1.3303,-1.3303,-1.3303,-1.3303,-1.3286,-1.3285,-1.3285,-1.3285,0,0,-1.3283,-1.3283,0,0,0,0,0,0,0,0,-1.3337,-1.3336,-1.3323,-1.3322,-1.3322,-1.3311,-1.3315,-1.3305,-1.3303,-1.331,-1.3303,-1.3302,-1.3294,-1.3293,-1.329,-1.3284,-1.3284,-1.3283,-1.3283,-1.3283,-1.3283,0,0,0,0,0,0,0,-1.3338,-1.3337,-1.3324,-1.3323,-1.3322,-1.3319,-1.3317,-1.3313,-1.3303,-1.3309,-1.3308,-1.3307,-1.3294,-1.3291,-1.329,-1.3284,-1.3283,-1.3283,-1.3283,-1.3282,-1.3279,-1.3279,0,0,0,0,0,0,-1.334,-1.3337,-1.3324,-1.3324,-1.3329,-1.3319,-1.3317,-1.3314,-1.3303,-1.3301,-1.3307,-1.3306,-1.3292,-1.3291,-1.3289,-1.329,-1.3283,-1.3282,-1.3282,-1.3279,-1.3279,-1.3279,0,0,0,0,0,0,-1.3341,-1.3339,-1.3325,-1.333,-1.3328,-1.3319,-1.3316,-1.3314,-1.3312,-1.3301,-1.33,-1.3306,-1.3292,-1.329,-1.3287,-1.3289,-1.3282,-1.3282,-1.3278,-1.3279,-1.3279,-1.3291,0,0,0,0,0,0,-1.3341,-1.3339,-1.3339,-1.333,-1.3328,-1.3323,-1.3316,-1.3314,-1.3311,-1.331,-1.33,-1.3298,-1.3291,-1.3288,-1.3286,-1.3288,-1.3281,-1.3278,-1.3279,-1.3279,-1.329,-1.3291,-1.3292,0,0,0,0,0,-1.3342,-1.3342,-1.3339,-1.3338,-1.3328,-1.3323,-1.3322,-1.3314,-1.3311,-1.3311,-1.3305,-1.3299,-1.3289,-1.3288,-1.3286,-1.3288,-1.3278,-1.3278,-1.3279,-1.3289,-1.3291,-1.3292,0,0,0,0,0,0,-1.3351,-1.3341,-1.3337,-1.3335,-1.333,-1.3321,-1.3321,-1.3316,-1.3311,-1.331,-1.3301,-1.3299,-1.3297,-1.3292,-1.329,-1.3288,-1.3283,-1.3283,-1.3291,-1.3293,-1.3294,-1.3295,-1.3281,0,0,0,0,0,-1.3353,-1.335,-1.3341,-1.334,-1.3338,-1.333,-1.3328,-1.3323,-1.3317,-1.3314,-1.3308,-1.3302,-1.3298,-1.3295,-1.3291,-1.329,-1.3288,-1.329,-1.3291,-1.3292,-1.3293,-1.3293,-1.3294,-1.3281,-1.3281,-1.3281,0,0,-1.3356,-1.3351,-1.3349,-1.3342,-1.3338,-1.3335,-1.3328,-1.3325,-1.3324,-1.3314,-1.3311,-1.3306,-1.3299,-1.3297,-1.3296,-1.3293,-1.3296,-1.3293,-1.3294,-1.3293,-1.3294,-1.3295,-1.3296,-1.3281,-1.3281,-1.3281,0,0,-1.3361,-1.3357,-1.3356,-1.3352,-1.3346,-1.3341,-1.3341,-1.3333,-1.333,-1.3327,-1.332,-1.3317,-1.331,-1.3306,-1.3303,-1.3309,-1.3303,-1.3307,-1.3314,-1.3314,-1.3315,-1.3316,-1.3319,-1.332,-1.3308,-1.3308,-1.3308,0,-1.3366,-1.3362,-1.3356,-1.3354,-1.3352,-1.3344,-1.3343,-1.334,-1.3332,-1.3331,-1.3328,-1.332,-1.3314,-1.3312,-1.3314,-1.3311,-1.3311,-1.3308,-1.3316,-1.3316,-1.3317,-1.332,-1.3321,-1.3308,-1.3308,-1.3308,-1.3308,0,-1.3369,-1.3367,-1.3367,-1.3361,-1.3359,-1.3357,-1.3351,-1.3349,-1.3345,-1.334,-1.3338,-1.3332,-1.3327,-1.3326,-1.3321,-1.3323,-1.3322,-1.3317,-1.3312,-1.3319,-1.3322,-1.3322,-1.3309,-1.3309,-1.3309,-1.3309,0,0,-1.3378,-1.337,-1.337,-1.3368,-1.3362,-1.336,-1.3359,-1.3355,-1.3354,-1.335,-1.3349,-1.3344,-1.334,-1.3337,-1.3332,-1.3332,-1.3339,-1.3328,-1.3327,-1.333,-1.3342,-1.3346,-1.3347,-1.3335,-1.3335,-1.3335,-1.3343,0,-1.3382,-1.3381,-1.3376,-1.3375,-1.3374,-1.3367,-1.3367,-1.3363,-1.3359,-1.3357,-1.3352,-1.3349,-1.3344,-1.3343,-1.3343,-1.3338,-1.3341,-1.3337,-1.3334,-1.3334,-1.3336,-1.3348,-1.3351,-1.3358,-1.3344,-1.3344,-1.3344,0,-1.3387,-1.3384,-1.3384,-1.3379,-1.3379,-1.3378,-1.3375,-1.3373,-1.3369,-1.3366,-1.3363,-1.3358,-1.3357,-1.3353,-1.3351,-1.3349,-1.3348,-1.3345,-1.3345,-1.3345,-1.3339,-1.3348,-1.336,-1.3362,-1.3345,-1.3345,-1.3345,0,-1.3394,-1.339,-1.339,-1.3389,-1.3383,-1.3383,-1.3381,-1.3376,-1.3375,-1.3372,-1.3371,-1.3368,-1.3366,-1.3364,-1.3358,-1.3355,-1.3358,-1.3352,-1.3356,-1.3356,-1.3356,-1.3356,-1.3369,-1.3355,-1.3355,-1.3355,-1.3355,0,-1.3399,-1.34,-1.3394,-1.3394,-1.3394,-1.3389,-1.3389,-1.3386,-1.3383,-1.3382,-1.3377,-1.3376,-1.3369,-1.3368,-1.3363,-1.3364,-1.3362,-1.336,-1.3359,-1.3361,-1.3361,-1.336,-1.3359,-1.3356,-1.3356,-1.3356,-1.3356,0,-1.3407,-1.3403,-1.3403,-1.3398,-1.3397,-1.3398,-1.3394,-1.3394,-1.339,-1.339,-1.3389,-1.3384,-1.3382,-1.3377,-1.3373,-1.3371,-1.3372,-1.337,-1.3374,-1.3373,-1.3377,-1.3377,-1.3389,-1.3391,-1.3376,-1.3376,-1.3377,0,-1.341,-1.3411,-1.3407,-1.3407,-1.3405,-1.3404,-1.3403,-1.3398,-1.3398,-1.3394,-1.3395,-1.3393,-1.3391,-1.3389,-1.3385,-1.3383,-1.338,-1.3385,-1.338,-1.3382,-1.3381,-1.3381,-1.3382,-1.3386,-1.3386,-1.3386,-1.3386,0,-1.3417,-1.3416,-1.3415,-1.3414,-1.3413,-1.3412,-1.341,-1.341,-1.3405,-1.3404,-1.3403,-1.3402,-1.34,-1.3399,-1.3396,-1.3394,-1.3389,-1.3388,-1.3389,-1.3391,-1.3393,-1.3393,-1.3377,-1.3388,-1.3388,-1.3388,-1.3387,-1.3387,-1.3423,-1.3424,-1.3422,-1.3422,-1.342,-1.3419,-1.3419,-1.3417,-1.3416,-1.3415,-1.3412,-1.3412,-1.3409,-1.3406,-1.3404,-1.3404,-1.3401,-1.3402,-1.3402,-1.3402,-1.3404,-1.3394,-1.3403,-1.3403,-1.3403,-1.3403,-1.3403,0,-1.343,-1.3429,-1.3429,-1.3428,-1.3428,-1.3425,-1.3423,-1.3423,-1.3424,-1.3422,-1.3421,-1.3421,-1.342,-1.3416,-1.3415,-1.3416,-1.3414,-1.3416,-1.3416,-1.3415,-1.3406,-1.3405,-1.3418,-1.3418,-1.3418,-1.3418,-1.3418,-1.3418,-1.3434,-1.3435,-1.3434,-1.3435,-1.3434,-1.3434,-1.3434,-1.3433,-1.3432,-1.3432,-1.3432,-1.343,-1.3428,-1.3427,-1.3427,-1.3426,-1.3426,-1.3428,-1.3427,-1.3417,-1.3416,-1.3415,-1.3414,-1.3428,-1.3428,-1.3436,-1.3437,-1.3437]}]]